This demonstration page uses our WeatherBlox Daily Observations layout. Learn more.

Left ArrowRight Arrow

36.19886, -115.1175

Hourly Observations for September 7, 2021

Temp ( °F °C ) Dew Point ( °F °C ) Humidity (%) Winds ( mph kmh ) Pressure ( in mb ) Visibility ( mi km ) Precip ( " mm )
12:53 am 00:53 Clear 90 32.2 40 4.4 17 17 W 6 9 29.87 1011 10 16 0.00 0.00
1:53 am 01:53 Clear 90 32.2 38 3.3 16 16 W 6 9 29.87 1012 10 16 0.00 0.00
2:53 am 02:53 Clear 85 29.4 38 3.3 19 19 NW 6 9 29.88 1012 10 16 0.00 0.00
3:53 am 03:53 Clear 86 30 35 1.7 16 16 WNW 7 11 29.88 1012 10 16 0.00 0.00
4:53 am 04:53 Clear 84 28.9 35 1.7 17 17 NW 8 13 29.89 1012 10 16 0.00 0.00
5:53 am 05:53 Clear 83 28.3 37 2.8 19 19 Calm 29.91 1013 10 16 0.00 0.00
6:53 am 06:53 Sunny 84 28.9 34 1.1 17 17 NW 9 15 29.92 1013 10 16 0.00 0.00
8:53 am 08:53 Sunny 93 33.9 49 9.4 22 22 N 6 9 29.94 1014 10 16 0.00 0.00
9:53 am 09:53 Sunny 95 35 52 11.1 23 23 ENE 6 9 29.96 1014 10 16 0.00 0.00
10:53 am 10:53 Sunny 97 36.1 45 7.2 17 17 Calm 29.94 1014 10 16 0.00 0.00
11:53 am 11:53 Sunny 101 38.3 47 8.3 16 16 Calm 29.91 1013 10 16 0.00 0.00
12:53 pm 12:53 Sunny 104 40 42 5.6 12 12 VRB 3 6 29.88 1012 10 16 0.00 0.00
1:53 pm 13:53 Sunny 106 41.1 38 3.3 10 10 VRB 3 6 29.86 1011 10 16 0.00 0.00
2:53 pm 14:53 Sunny 108 42.2 36 2.2 8 8 VRB 3 6 29.83 1010 10 16 0.00 0.00
3:53 pm 15:53 Sunny 108 42.2 34 1.1 8 8 S 3 6 29.80 1009 10 16 0.00 0.00
4:53 pm 16:53 Sunny 109 42.8 33 0.6 7 7 Calm 29.80 1009 10 16 0.00 0.00
5:53 pm 17:53 Sunny 108 42.2 32 0 7 7 S 5 7 29.78 1009 10 16 0.00 0.00
6:53 pm 18:53 Sunny 106 41.1 32 0 8 8 Calm 29.78 1009 10 16 0.00 0.00
7:53 pm 19:53 Clear 102 38.9 35 1.7 10 10 Calm 29.79 1009 10 16 0.00 0.00
8:53 pm 20:53 Clear 98 36.7 40 4.4 13 13 W 7 11 29.80 1009 10 16 0.00 0.00
9:53 pm 21:53 Clear 94 34.4 37 2.8 14 14 NW 8 13 29.80 1009 10 16 0.00 0.00
10:53 pm 22:53 Clear 93 33.9 37 2.8 14 14 WNW 7 11 29.80 1009 10 16 0.00 0.00
11:53 pm 23:53 Clear 90 32.2 40 4.4 17 17 WSW 7 11 29.80 1009 10 16 0.00 0.00

Powered by AerisWeather